QPF
0.01 0.01 0.01 0.01 0.00 0.00 0.00 0.00 0.01 0.01 0.00 0.00 0.00 0.00 0.00 0.00 0.00 0.00 0.00 0.00 0.00 0.00 0.00 0.00 0.00 0.00 0.00 0.00 0.00 0.00 0.00 0.00 0.01 0.01 0.01 0.03 0.05 0.07 0.08 0.08 0.08 0.07 0.06
0.01 0.01 0.01 0.01 0.00 0.00 0.00 0.01 0.01 0.01 0.01 0.00 0.00 0.00 0.00 0.00 0.00 0.00 0.00 0.00 0.00 0.00 0.00 0.00 0.00 0.00 0.00 0.00 0.00 0.00 0.00 0.00 0.00 0.01 0.01 0.01 0.02 0.06 0.09 0.08 0.07 0.05 0.05
0.01 0.01 0.01 0.01 0.01 0.01 0.00 0.00 0.00 0.00 0.00 0.00 0.00 0.00 0.00 0.00 0.00 0.00 0.00 0.00 0.00 0.00 0.00 0.00 0.00 0.00 0.00 0.00 0.00 0.00 0.00 0.00 0.00 0.00 0.01 0.02 0.02 0.03 0.06 0.06 0.06 0.07 0.05
0.01 0.01 0.01 0.01 0.01 0.00 0.00 0.00 0.00 0.00 0.00 0.00 0.00 0.00 0.00 0.00 0.00 0.00 0.00 0.00 0.00 0.00 0.00 0.00 0.00 0.00 0.00 0.00 0.00 0.00 0.00 0.00 0.00 0.01 0.02 0.02 0.02 0.03 0.02 0.04 0.06 0.07 0.07
0.01 0.01 0.01 0.00 0.00 0.00 0.00 0.00 0.00 0.00 0.00 0.00 0.00 0.00 0.00 0.00 0.00 0.00 0.00 0.00 0.00 0.00 0.00 0.00 0.00 0.00 0.00 0.00 0.00 0.00 0.00 0.00 0.01 0.01 0.01 0.02 0.04 0.02 0.02 0.04 0.05 0.04 0.06
0.01 0.01 0.01 0.01 0.00 0.00 0.00 0.00 0.00 0.00 0.00 0.00 0.00 0.00 0.00 0.00 0.00 0.00 0.00 0.00 0.00 0.00 0.00 0.00 0.00 0.00 0.00 0.00 0.00 0.00 0.01 0.01 0.01 0.01 0.00 0.01 0.02 0.01 0.01 0.02 0.02 0.03 0.04
0.01 0.01 0.01 0.01 0.00 0.00 0.00 0.00 0.00 0.00 0.00 0.00 0.00 0.00 0.00 0.00 0.00 0.00 0.00 0.00 0.00 0.00 0.00 0.00 0.00 0.00 0.00 0.00 0.00 0.00 0.00 0.01 0.01 0.01 0.01 0.00 0.00 0.01 0.01 0.02 0.02 0.03 0.05
0.01 0.01 0.02 0.01 0.01 0.00 0.00 0.00 0.00 0.00 0.00 0.00 0.00 0.00 0.00 0.00 0.00 0.00 0.00 0.00 0.00 0.00 0.00 0.00 0.00 0.00 0.00 0.00 0.00 0.00 0.00 0.01 0.01 0.00 0.00 0.00 0.00 0.01 0.02 0.02 0.01 0.01 0.03
0.01 0.01 0.01 0.01 0.01 0.00 0.00 0.00 0.00 0.00 0.00 0.00 0.00 0.00 0.00 0.00 0.00 0.00 0.00 0.00 0.00 0.00 0.00 0.00 0.00 0.00 0.00 0.00 0.00 0.00 0.00 0.01 0.00 0.00 0.00 0.00 0.00 0.01 0.01 0.02 0.01 0.01 0.02
0.01 0.01 0.01 0.01 0.01 0.01 0.00 0.00 0.00 0.00 0.00 0.00 0.00 0.00 0.00 0.00 0.00 0.00 0.00 0.00 0.00 0.00 0.00 0.00 0.00 0.00 0.00 0.00 0.00 0.00 0.00 0.00 0.00 0.00 0.00 0.00 0.00 0.01 0.02 0.03 0.03 0.03 0.02
0.01 0.01 0.01 0.01 0.01 0.01 0.00 0.00 0.00 0.00 0.00 0.00 0.00 0.00 0.00 0.00 0.00 0.00 0.00 0.00 0.00 0.00 0.00 0.00 0.00 0.00 0.00 0.00 0.00 0.00 0.00 0.00 0.00 0.00 0.00 0.00 0.00 0.01 0.02 0.04 0.03 0.02 0.02
0.01 0.01 0.01 0.01 0.01 0.01 0.01 0.00 0.00 0.00 0.00 0.00 0.00 0.00 0.00 0.00 0.00 0.00 0.01 0.01 0.00 0.00 0.00 0.00 0.00 0.00 0.00 0.00 0.00 0.01 0.00 0.00 0.00 0.00 0.00 0.00 0.00 0.00 0.01 0.03 0.03 0.02 0.02
0.01 0.01 0.01 0.01 0.01 0.01 0.01 0.01 0.00 0.00 0.00 0.00 0.00 0.00 0.00 0.00 0.00 0.00 0.00 0.00 0.00 0.00 0.00 0.00 0.00 0.00 0.00 0.00 0.00 0.01 0.00 0.00 0.01 0.01 0.00 0.00 0.00 0.00 0.00 0.01 0.02 0.01 0.01
0.01 0.01 0.01 0.01 0.01 0.01 0.01 0.00 0.00 0.00 0.00 0.00 0.00 0.00 0.00 0.00 0.00 0.00 0.00 0.00 0.00 0.00 0.00 0.00 0.00 0.00 0.00 0.00 0.00 0.00 0.00 0.00 0.00 0.00 0.00 0.00 0.00 0.00 0.00 0.00 0.01 0.01 0.01
0.01 0.01 0.01 0.01 0.01 0.01 0.01 0.01 0.01 0.01 0.01 0.01 0.00 0.00 0.00 0.00 0.00 0.00 0.00 0.00 0.00 0.00 0.00 0.00 0.00 0.00 0.00 0.00 0.00 0.00 0.00 0.00 0.00 0.00 0.00 0.00 0.00 0.00 0.00 0.00 0.00 0.01 0.00
0.01 0.01 0.01 0.01 0.01 0.01 0.02 0.02 0.01 0.01 0.01 0.01 0.01 0.01 0.00 0.00 0.01 0.01 0.00 0.01 0.01 0.00 0.00 0.00 0.00 0.00 0.00 0.00 0.00 0.00 0.00 0.00 0.00 0.00 0.00 0.01 0.01 0.00 0.01 0.01 0.01 0.01 0.01
0.01 0.01 0.01 0.01 0.02 0.02 0.02 0.02 0.02 0.01 0.01 0.01 0.01 0.01 0.01 0.01 0.01 0.01 0.01 0.01 0.00 0.00 0.00 0.00 0.00 0.00 0.00 0.00 0.00 0.00 0.00 0.00 0.00 0.00 0.01 0.01 0.01 0.00 0.01 0.01 0.01 0.01 0.01
0.01 0.01 0.01 0.02 0.02 0.02 0.02 0.02 0.02 0.01 0.01 0.01 0.01 0.01 0.01 0.01 0.01 0.01 0.01 0.00 0.00 0.00 0.00 0.00 0.00 0.00 0.00 0.00 0.00 0.00 0.00 0.00 0.00 0.01 0.01 0.01 0.01 0.01 0.01 0.01 0.01 0.00 0.00
0.01 0.02 0.02 0.02 0.02 0.02 0.02 0.01 0.01 0.01 0.01 0.01 0.01 0.01 0.01 0.01 0.01 0.01 0.01 0.00 0.00 0.00 0.00 0.00 0.00 0.00 0.00 0.00 0.00 0.00 0.00 0.00 0.01 0.01 0.01 0.01 0.01 0.01 0.01 0.01 0.01 0.01 0.01
0.03 0.03 0.02 0.01 0.01 0.01 0.01 0.01 0.01 0.01 0.01 0.01 0.01 0.01 0.01 0.01 0.00 0.00 0.00 0.00 0.00 0.00 0.01 0.01 0.00 0.00 0.01 0.01 0.01 0.01 0.01 0.00 0.01 0.01 0.01 0.01 0.01 0.01 0.01 0.01 0.01 0.01 0.01
0.02 0.02 0.01 0.01 0.01 0.01 0.01 0.01 0.01 0.01 0.01 0.01 0.01 0.01 0.01 0.01 0.01 0.01 0.01 0.01 0.01 0.01 0.01 0.01 0.01 0.01 0.01 0.01 0.01 0.01 0.01 0.01 0.01 0.01 0.01 0.01 0.01 0.01 0.01 0.01 0.01 0.01 0.01
0.01 0.01 0.01 0.01 0.01 0.01 0.01 0.01 0.00 0.01 0.00 0.00 0.00 0.00 0.00 0.00 0.00 0.00 0.00 0.00 0.00 0.01 0.01 0.01 0.01 0.01 0.01 0.01 0.01 0.01 0.01 0.01 0.01 0.01 0.01 0.01 0.01 0.01 0.01 0.01 0.01 0.01 0.01
0.01 0.01 0.01 0.01 0.01 0.01 0.01 0.01 0.01 0.00 0.00 0.00 0.00 0.01 0.00 0.00 0.00 0.00 0.00 0.00 0.00 0.00 0.00 0.00 0.00 0.00 0.01 0.01 0.01 0.01 0.01 0.01 0.01 0.01 0.01 0.01 0.01 0.01 0.01 0.01 0.01 0.01 0.01
0.01 0.00 0.00 0.01 0.01 0.00 0.00 0.01 0.00 0.00 0.01 0.01 0.00 0.00 0.01 0.01 0.01 0.01 0.01 0.01 0.00 0.00 0.00 0.00 0.00 0.00 0.01 0.01 0.01 0.02 0.01 0.01 0.02 0.01 0.01 0.01 0.01 0.01 0.01 0.01 0.01 0.01 0.01
0.00 0.00 0.00 0.00 0.00 0.00 0.00 0.00 0.00 0.01 0.01 0.01 0.00 0.01 0.01 0.01 0.01 0.01 0.01 0.00 0.00 0.01 0.01 0.00 0.01 0.00 0.00 0.01 0.01 0.02 0.02 0.02 0.02 0.02 0.02 0.02 0.02 0.02 0.02 0.02 0.01 0.01 0.02
0.00 0.01 0.01 0.01 0.00 0.00 0.01 0.01 0.01 0.01 0.01 0.01 0.01 0.01 0.01 0.01 0.01 0.01 0.01 0.01 0.01 0.01 0.01 0.01 0.00 0.00 0.01 0.01 0.02 0.02 0.03 0.03 0.03 0.03 0.03 0.03 0.03 0.02 0.02 0.02 0.02 0.02 0.02
MSLP
1018.53 1018.86 1019.23 1019.63 1020.03 1020.43 1020.78 1021.10 1021.38 1021.63 1021.86 1022.07 1022.29 1022.51 1022.72 1022.92 1023.11 1023.25 1023.36 1023.42 1023.44 1023.42 1023.37 1023.31 1023.26 1023.22 1023.22 1023.26 1023.34 1023.46 1023.62 1023.81 1024.01 1024.21 1024.41 1024.59 1024.75 1024.87 1024.96 1025.01 1025.02 1024.98 1024.89
1018.25 1018.63 1019.05 1019.48 1019.90 1020.30 1020.65 1020.97 1021.24 1021.49 1021.73 1021.97 1022.21 1022.47 1022.73 1022.98 1023.22 1023.43 1023.60 1023.72 1023.78 1023.80 1023.77 1023.73 1023.67 1023.62 1023.59 1023.60 1023.64 1023.72 1023.84 1023.98 1024.14 1024.31 1024.47 1024.61 1024.74 1024.83 1024.88 1024.89 1024.86 1024.79 1024.68
1017.86 1018.32 1018.80 1019.27 1019.72 1020.12 1020.49 1020.81 1021.09 1021.35 1021.60 1021.85 1022.12 1022.40 1022.69 1022.99 1023.27 1023.52 1023.73 1023.90 1024.00 1024.06 1024.07 1024.05 1024.01 1023.97 1023.94 1023.93 1023.95 1024.01 1024.09 1024.19 1024.31 1024.44 1024.55 1024.65 1024.73 1024.77 1024.77 1024.73 1024.66 1024.54 1024.40
1017.36 1017.90 1018.44 1018.96 1019.45 1019.89 1020.28 1020.62 1020.92 1021.20 1021.46 1021.73 1022.02 1022.31 1022.62 1022.93 1023.23 1023.51 1023.75 1023.94 1024.08 1024.18 1024.23 1024.24 1024.23 1024.21 1024.20 1024.19 1024.21 1024.24 1024.30 1024.37 1024.45 1024.53 1024.60 1024.65 1024.67 1024.66 1024.62 1024.53 1024.41 1024.26 1024.08
1016.77 1017.37 1017.97 1018.55 1019.09 1019.57 1019.99 1020.37 1020.70 1021.01 1021.30 1021.59 1021.88 1022.18 1022.49 1022.80 1023.09 1023.37 1023.61 1023.82 1023.99 1024.11 1024.20 1024.25 1024.28 1024.30 1024.31 1024.32 1024.34 1024.36 1024.40 1024.44 1024.49 1024.53 1024.56 1024.56 1024.54 1024.49 1024.40 1024.28 1024.13 1023.94 1023.74
1016.11 1016.76 1017.40 1018.02 1018.60 1019.13 1019.60 1020.02 1020.40 1020.74 1021.05 1021.36 1021.65 1021.95 1022.24 1022.53 1022.80 1023.06 1023.30 1023.51 1023.69 1023.85 1023.97 1024.06 1024.14 1024.19 1024.23 1024.26 1024.29 1024.32 1024.34 1024.37 1024.38 1024.39 1024.38 1024.36 1024.31 1024.23 1024.12 1023.97 1023.80 1023.61 1023.39
1015.43 1016.07 1016.73 1017.37 1017.98 1018.54 1019.06 1019.52 1019.94 1020.32 1020.66 1020.98 1021.28 1021.56 1021.83 1022.08 1022.33 1022.56 1022.78 1022.99 1023.18 1023.35 1023.51 1023.65 1023.77 1023.87 1023.95 1024.01 1024.06 1024.09 1024.11 1024.12 1024.12 1024.11 1024.08 1024.03 1023.96 1023.87 1023.76 1023.61 1023.45 1023.25 1023.04
1014.76 1015.35 1015.98 1016.61 1017.22 1017.80 1018.34 1018.84 1019.29 1019.70 1020.07 1020.39 1020.69 1020.96 1021.20 1021.42 1021.63 1021.84 1022.04 1022.24 1022.44 1022.65 1022.84 1023.03 1023.19 1023.34 1023.46 1023.56 1023.63 1023.68 1023.70 1023.71 1023.70 1023.68 1023.65 1023.60 1023.53 1023.44 1023.33 1023.20 1023.05 1022.87 1022.66
1014.13 1014.63 1015.18 1015.76 1016.34 1016.91 1017.45 1017.97 1018.44 1018.87 1019.25 1019.59 1019.88 1020.13 1020.35 1020.55 1020.73 1020.92 1021.11 1021.31 1021.54 1021.77 1022.00 1022.23 1022.45 1022.65 1022.82 1022.95 1023.05 1023.12 1023.16 1023.17 1023.17 1023.15 1023.12 1023.08 1023.02 1022.94 1022.85 1022.73 1022.59 1022.43 1022.24
1013.58 1013.96 1014.39 1014.87 1015.39 1015.91 1016.43 1016.94 1017.42 1017.86 1018.25 1018.60 1018.88 1019.13 1019.33 1019.52 1019.69 1019.87 1020.06 1020.28 1020.52 1020.78 1021.06 1021.34 1021.60 1021.84 1022.05 1022.22 1022.35 1022.44 1022.50 1022.54 1022.55 1022.54 1022.53 1022.49 1022.45 1022.38 1022.30 1022.19 1022.07 1021.91 1021.73
1013.15 1013.36 1013.66 1014.02 1014.43 1014.89 1015.36 1015.84 1016.31 1016.75 1017.15 1017.49 1017.78 1018.03 1018.24 1018.42 1018.59 1018.78 1018.98 1019.22 1019.48 1019.78 1020.09 1020.40 1020.70 1020.98 1021.22 1021.42 1021.57 1021.69 1021.77 1021.82 1021.86 1021.87 1021.87 1021.85 1021.82 1021.76 1021.69 1021.58 1021.45 1021.30 1021.12
1012.86 1012.90 1013.04 1013.26 1013.56 1013.93 1014.34 1014.78 1015.22 1015.64 1016.03 1016.38 1016.68 1016.93 1017.15 1017.34 1017.53 1017.73 1017.96 1018.21 1018.50 1018.82 1019.15 1019.48 1019.80 1020.09 1020.35 1020.56 1020.73 1020.86 1020.96 1021.03 1021.09 1021.12 1021.14 1021.14 1021.11 1021.06 1020.99 1020.87 1020.74 1020.57 1020.38
1012.74 1012.62 1012.61 1012.69 1012.87 1013.13 1013.46 1013.84 1014.23 1014.63 1015.01 1015.36 1015.66 1015.93 1016.16 1016.37 1016.58 1016.80 1017.05 1017.32 1017.62 1017.94 1018.27 1018.60 1018.91 1019.19 1019.44 1019.65 1019.81 1019.95 1020.06 1020.15 1020.22 1020.28 1020.32 1020.33 1020.32 1020.27 1020.18 1020.06 1019.90 1019.72 1019.51
1012.81 1012.55 1012.39 1012.34 1012.40 1012.56 1012.80 1013.10 1013.45 1013.81 1014.16 1014.49 1014.79 1015.06 1015.30 1015.53 1015.76 1015.99 1016.25 1016.52 1016.82 1017.12 1017.44 1017.73 1018.01 1018.26 1018.47 1018.65 1018.80 1018.93 1019.04 1019.14 1019.23 1019.31 1019.37 1019.40 1019.40 1019.35 1019.26 1019.13 1018.96 1018.76 1018.54
1013.08 1012.70 1012.43 1012.26 1012.20 1012.25 1012.40 1012.61 1012.88 1013.18 1013.49 1013.79 1014.06 1014.32 1014.56 1014.79 1015.02 1015.26 1015.51 1015.77 1016.05 1016.32 1016.58 1016.83 1017.06 1017.25 1017.41 1017.55 1017.67 1017.77 1017.88 1017.99 1018.09 1018.19 1018.28 1018.34 1018.35 1018.32 1018.24 1018.10 1017.92 1017.71 1017.48
1013.52 1013.06 1012.69 1012.42 1012.26 1012.20 1012.24 1012.36 1012.53 1012.74 1012.97 1013.21 1013.44 1013.66 1013.87 1014.08 1014.30 1014.52 1014.75 1014.98 1015.21 1015.44 1015.64 1015.82 1015.98 1016.11 1016.21 1016.29 1016.38 1016.47 1016.57 1016.68 1016.81 1016.94 1017.06 1017.15 1017.19 1017.19 1017.12 1017.00 1016.83 1016.62 1016.40
1014.07 1013.56 1013.12 1012.77 1012.51 1012.35 1012.27 1012.27 1012.33 1012.43 1012.55 1012.69 1012.84 1012.99 1013.15 1013.31 1013.49 1013.67 1013.86 1014.05 1014.23 1014.40 1014.54 1014.65 1014.74 1014.80 1014.85 1014.89 1014.95 1015.02 1015.13 1015.26 1015.41 1015.58 1015.74 1015.87 1015.97 1016.00 1015.97 1015.88 1015.73 1015.54 1015.33
1014.69 1014.14 1013.65 1013.23 1012.88 1012.62 1012.42 1012.29 1012.20 1012.16 1012.15 1012.16 1012.20 1012.25 1012.33 1012.42 1012.53 1012.66 1012.79 1012.93 1013.06 1013.17 1013.25 1013.31 1013.34 1013.35 1013.36 1013.37 1013.41 1013.49 1013.60 1013.76 1013.95 1014.17 1014.38 1014.57 1014.72 1014.81 1014.83 1014.78 1014.67 1014.51 1014.32
1015.28 1014.72 1014.20 1013.72 1013.29 1012.92 1012.60 1012.33 1012.09 1011.89 1011.73 1011.60 1011.50 1011.43 1011.40 1011.40 1011.43 1011.49 1011.56 1011.64 1011.71 1011.77 1011.80 1011.81 1011.80 1011.78 1011.77 1011.78 1011.82 1011.92 1012.06 1012.26 1012.50 1012.77 1013.04 1013.29 1013.50 1013.65 1013.73 1013.73 1013.67 1013.54 1013.38
1015.80 1015.23 1014.69 1014.17 1013.67 1013.20 1012.76 1012.35 1011.97 1011.61 1011.29 1011.01 1010.77 1010.57 1010.42 1010.32 1010.26 1010.24 1010.24 1010.26 1010.27 1010.27 1010.27 1010.24 1010.21 1010.18 1010.17 1010.19 1010.25 1010.38 1010.57 1010.81 1011.11 1011.43 1011.76 1012.08 1012.35 1012.56 1012.70 1012.76 1012.74 1012.66 1012.52
1016.18 1015.63 1015.07 1014.52 1013.97 1013.42 1012.88 1012.35 1011.83 1011.34 1010.87 1010.45 1010.07 1009.75 1009.49 1009.29 1009.14 1009.03 1008.95 1008.90 1008.86 1008.81 1008.76 1008.71 1008.66 1008.63 1008.62 1008.66 1008.76 1008.93 1009.17 1009.47 1009.81 1010.20 1010.59 1010.95 1011.28 1011.55 1011.74 1011.85 1011.88 1011.83 1011.72
1016.41 1015.88 1015.32 1014.75 1014.16 1013.55 1012.94 1012.31 1011.69 1011.09 1010.52 1009.98 1009.50 1009.08 1008.72 1008.42 1008.18 1007.99 1007.83 1007.71 1007.59 1007.49 1007.40 1007.31 1007.24 1007.20 1007.21 1007.27 1007.40 1007.61 1007.89 1008.23 1008.63 1009.06 1009.50 1009.92 1010.29 1010.61 1010.84 1011.00 1011.06 1011.05 1010.96
1016.49 1015.97 1015.42 1014.84 1014.23 1013.59 1012.93 1012.26 1011.58 1010.91 1010.27 1009.66 1009.11 1008.62 1008.18 1007.81 1007.49 1007.22 1006.99 1006.78 1006.59 1006.41 1006.26 1006.12 1006.02 1005.96 1005.96 1006.03 1006.18 1006.41 1006.73 1007.12 1007.55 1008.02 1008.49 1008.95 1009.36 1009.71 1009.98 1010.16 1010.26 1010.28 1010.21
1016.43 1015.92 1015.38 1014.81 1014.19 1013.55 1012.87 1012.18 1011.48 1010.80 1010.13 1009.50 1008.91 1008.38 1007.90 1007.48 1007.10 1006.75 1006.43 1006.14 1005.86 1005.59 1005.36 1005.15 1004.99 1004.89 1004.87 1004.93 1005.09 1005.34 1005.67 1006.08 1006.55 1007.04 1007.54 1008.02 1008.46 1008.83 1009.13 1009.34 1009.46 1009.50 1009.46
1016.25 1015.75 1015.21 1014.64 1014.04 1013.40 1012.73 1012.05 1011.36 1010.69 1010.04 1009.42 1008.84 1008.30 1007.81 1007.34 1006.91 1006.50 1006.10 1005.72 1005.34 1004.98 1004.65 1004.36 1004.13 1003.97 1003.91 1003.95 1004.09 1004.35 1004.69 1005.12 1005.60 1006.12 1006.63 1007.13 1007.58 1007.97 1008.28 1008.51 1008.65 1008.71 1008.69
1015.98 1015.47 1014.93 1014.36 1013.75 1013.12 1012.47 1011.82 1011.16 1010.52 1009.90 1009.32 1008.77 1008.25 1007.75 1007.27 1006.80 1006.33 1005.86 1005.39 1004.92 1004.47 1004.04 1003.67 1003.36 1003.14 1003.04 1003.05 1003.18 1003.43 1003.78 1004.22 1004.72 1005.25 1005.78 1006.28 1006.75 1007.14 1007.46 1007.70 1007.86 1007.93 1007.91
Thickness
5718 5716 5713 5712 5710 5709 5708 5707 5705 5703 5702 5701 5699 5698 5696 5695 5694 5692 5692 5690 5689 5688 5687 5685 5683 5682 5682 5681 5679 5678 5676 5675 5671 5671 5671 5670 5669 5669 5669 5670 5671 5672 5672
5717 5715 5713 5711 5709 5707 5706 5704 5702 5701 5700 5698 5697 5695 5694 5692 5691 5690 5688 5686 5686 5684 5683 5681 5680 5678 5678 5677 5675 5674 5672 5670 5668 5665 5665 5664 5663 5663 5663 5664 5665 5667 5666
5716 5714 5712 5709 5708 5706 5704 5702 5701 5699 5698 5696 5694 5692 5691 5689 5687 5686 5685 5684 5682 5681 5679 5677 5676 5674 5673 5672 5670 5669 5667 5665 5663 5661 5660 5658 5658 5658 5658 5658 5660 5660 5661
5716 5713 5710 5709 5706 5704 5702 5700 5699 5697 5695 5694 5692 5690 5688 5686 5685 5683 5682 5680 5679 5677 5675 5673 5671 5669 5668 5667 5665 5664 5662 5660 5658 5656 5655 5654 5652 5652 5652 5652 5653 5654 5654
5714 5711 5709 5708 5704 5702 5700 5698 5696 5694 5692 5690 5689 5687 5685 5683 5681 5679 5678 5676 5675 5673 5671 5669 5665 5662 5659 5658 5658 5657 5656 5655 5653 5651 5649 5649 5647 5645 5645 5645 5646 5647 5648
5714 5711 5708 5705 5702 5699 5697 5695 5692 5690 5688 5687 5685 5684 5681 5679 5675 5672 5672 5672 5671 5669 5667 5664 5661 5658 5654 5651 5649 5647 5646 5647 5646 5645 5644 5642 5641 5640 5638 5639 5639 5640 5641
5714 5709 5705 5703 5699 5696 5695 5692 5688 5686 5685 5684 5682 5680 5678 5674 5670 5668 5666 5667 5667 5665 5663 5661 5658 5654 5651 5650 5646 5642 5640 5638 5636 5638 5638 5637 5635 5635 5633 5633 5633 5633 5633
5712 5708 5704 5701 5697 5694 5692 5689 5686 5685 5682 5680 5679 5677 5674 5670 5666 5664 5662 5664 5663 5661 5658 5656 5654 5651 5646 5644 5643 5641 5639 5636 5632 5632 5632 5630 5629 5627 5627 5626 5626 5627 5629
5710 5706 5703 5699 5695 5691 5688 5686 5684 5683 5679 5677 5675 5672 5670 5667 5662 5660 5657 5660 5659 5657 5654 5650 5648 5645 5639 5635 5637 5636 5634 5632 5627 5624 5622 5621 5620 5619 5618 5620 5621 5621 5622
5709 5706 5702 5698 5693 5690 5687 5684 5682 5679 5676 5673 5671 5669 5667 5665 5659 5655 5653 5656 5654 5652 5648 5645 5640 5637 5632 5629 5631 5630 5628 5627 5624 5623 5620 5618 5617 5616 5613 5614 5614 5613 5613
5708 5704 5699 5695 5691 5688 5684 5681 5677 5675 5672 5670 5668 5666 5664 5660 5655 5651 5648 5649 5648 5646 5644 5641 5637 5630 5626 5624 5623 5623 5620 5618 5618 5618 5617 5615 5613 5612 5610 5608 5606 5604 5604
5704 5699 5695 5692 5688 5684 5680 5676 5674 5670 5667 5665 5664 5661 5659 5656 5651 5648 5644 5642 5640 5640 5638 5636 5632 5625 5621 5618 5617 5614 5612 5611 5613 5612 5611 5609 5607 5605 5603 5600 5598 5596 5594
5698 5694 5691 5688 5684 5681 5677 5672 5669 5666 5664 5662 5660 5657 5655 5652 5648 5643 5639 5636 5633 5632 5632 5627 5623 5619 5615 5614 5611 5608 5607 5608 5607 5606 5604 5602 5600 5597 5594 5592 5590 5588 5586
5694 5691 5687 5684 5681 5677 5673 5670 5666 5663 5660 5658 5656 5653 5651 5648 5645 5640 5637 5632 5627 5625 5624 5620 5615 5612 5610 5608 5607 5605 5603 5602 5600 5598 5597 5595 5592 5589 5587 5585 5583 5581 5580
5691 5687 5684 5680 5677 5673 5668 5666 5663 5661 5658 5654 5652 5650 5646 5643 5640 5634 5631 5629 5626 5622 5618 5616 5614 5611 5609 5606 5604 5602 5599 5596 5593 5591 5589 5587 5584 5582 5580 5577 5574 5572 5571
5686 5683 5679 5675 5670 5667 5663 5658 5653 5652 5649 5646 5643 5642 5640 5636 5631 5627 5623 5620 5616 5612 5610 5610 5608 5606 5604 5601 5599 5596 5593 5590 5587 5584 5581 5579 5577 5575 5572 5569 5566 5564 5562
5681 5677 5673 5670 5666 5662 5658 5655 5650 5644 5640 5637 5635 5633 5630 5627 5624 5620 5616 5612 5608 5604 5604 5604 5602 5600 5597 5594 5591 5589 5586 5583 5579 5576 5574 5571 5569 5567 5564 5562 5559 5556 5553
5673 5669 5666 5663 5661 5658 5654 5651 5648 5644 5640 5636 5631 5626 5622 5619 5616 5612 5608 5604 5603 5599 5599 5597 5595 5593 5590 5587 5584 5581 5578 5575 5572 5569 5566 5564 5561 5558 5556 5553 5550 5547 5544
5665 5663 5660 5658 5655 5652 5649 5646 5643 5640 5637 5633 5629 5623 5616 5612 5608 5604 5600 5600 5600 5597 5594 5591 5588 5585 5582 5579 5576 5573 5570 5567 5564 5561 5558 5555 5552 5549 5547 5544 5541 5536 5532
5658 5654 5652 5651 5648 5646 5643 5640 5637 5634 5631 5627 5624 5620 5613 5607 5605 5601 5597 5596 5594 5592 5588 5585 5581 5577 5574 5571 5567 5564 5561 5558 5556 5552 5550 5546 5543 5540 5538 5535 5531 5528 5525
5650 5647 5642 5642 5641 5639 5636 5634 5631 5628 5625 5621 5618 5614 5607 5604 5602 5598 5594 5590 5588 5585 5582 5578 5574 5570 5566 5562 5558 5555 5553 5550 5547 5544 5541 5538 5535 5532 5528 5526 5522 5519 5516
5642 5640 5637 5636 5634 5631 5629 5627 5624 5621 5618 5614 5610 5606 5598 5597 5595 5592 5588 5584 5581 5577 5574 5570 5566 5562 5558 5554 5551 5547 5545 5542 5539 5536 5533 5529 5526 5523 5519 5516 5513 5509 5505
5633 5632 5630 5628 5626 5621 5619 5618 5615 5613 5610 5606 5603 5599 5594 5590 5587 5584 5580 5577 5573 5569 5565 5561 5558 5555 5551 5547 5543 5539 5537 5534 5530 5527 5523 5520 5517 5513 5510 5507 5503 5499 5496
5624 5622 5620 5618 5616 5613 5611 5609 5607 5604 5601 5598 5594 5591 5587 5583 5579 5576 5572 5568 5564 5561 5557 5553 5550 5547 5543 5539 5536 5532 5528 5524 5520 5517 5514 5511 5508 5504 5501 5498 5494 5490 5486
5613 5611 5610 5608 5606 5604 5603 5600 5598 5595 5592 5589 5585 5582 5578 5575 5571 5566 5563 5559 5555 5551 5548 5544 5541 5538 5535 5532 5528 5524 5520 5516 5511 5507 5503 5501 5498 5495 5492 5488 5484 5480 5476
5602 5601 5599 5598 5596 5595 5593 5591 5589 5586 5583 5579 5576 5572 5568 5564 5561 5557 5553 5549 5545 5542 5539 5536 5533 5529 5526 5523 5520 5516 5512 5507 5503 5498 5494 5491 5489 5486 5482 5478 5474 5470 5466